Stations météo

réclame
Mon MeteoGroup
Badajoz/Talavera La Real, Espagne (8330): Température de l'air & dewpoint: 14.10.2018 20:00:00 - 20.10.2018 20:00:00 (CEST)Badajoz/Talavera La Real, Espagne (8330): Vitesse du vent: 14.10.2018 20:00:00 - 20.10.2018 20:00:00 (CEST)Badajoz/Talavera La Real, Espagne (8330): Direction du vent: 14.10.2018 20:00:00 - 20.10.2018 20:00:00 (CEST)Badajoz/Talavera La Real, Espagne (8330): reduced air pressure: 14.10.2018 20:00:00 - 20.10.2018 20:00:00 (CEST)Badajoz/Talavera La Real, Espagne (8330): visibility: 14.10.2018 20:00:00 - 20.10.2018 20:00:00 (CEST)Badajoz/Talavera La Real, Espagne (8330): Quantités de précipitations: 14.10.2018 20:00:00 - 20.10.2018 20:00:00 (CEST)
Date & Time tt [°C] td [°C] ff [km/h] ff [knt] dd ppp [hPa] vv [km] rr [mm]
20.10.2018 20:00:00 - - - - - - - -
20.10.2018 19:00:00 19,0 15,7 8 4 ENE 1015,7 - 0,0
20.10.2018 18:00:00 20,1 13,8 13 7 E 1015,4 - 0,0
20.10.2018 17:00:00 21,0 13,4 15 8 E 1015,2 75 -
20.10.2018 16:00:00 21,3 12,4 16 9 E 1015,2 - 0,0
20.10.2018 15:00:00 21,4 13,1 15 8 E 1015,4 - 0,0
20.10.2018 14:00:00 21,4 13,1 18 10 E 1016,0 75 -
20.10.2018 13:00:00 20,6 14,0 16 9 E 1016,6 - 0,0
20.10.2018 12:00:00 18,5 14,4 21 11 E 1016,9 - 0,0
20.10.2018 11:00:00 16,6 14,8 13 7 ENE 1016,6 20 -
20.10.2018 10:00:00 14,0 13,8 4 2 E 1016,3 - 0,0
20.10.2018 09:00:00 13,0 12,7 0 0 N 1015,8 - 0,0
20.10.2018 08:00:00 13,3 12,8 4 2 WNW 1015,6 2,5 -
20.10.2018 07:00:00 13,9 13,6 2 1 WNW 1015,2 - 0,0
20.10.2018 06:00:00 14,1 13,8 4 2 N 1014,9 - 0,0
20.10.2018 05:00:00 14,4 13,9 4 2 E 1014,7 - -
20.10.2018 04:00:00 14,9 14,3 4 2 ENE 1014,7 - 0,0
20.10.2018 03:00:00 15,3 14,7 2 1 SE 1014,6 - 0,0
20.10.2018 02:00:00 15,8 15,0 4 2 NE 1014,7 - -
20.10.2018 01:00:00 16,2 15,2 4 2 NNW 1015,0 - 0,0
20.10.2018 00:00:00 16,5 15,5 4 2 N 1014,8 - 0,0
19.10.2018 23:00:00 16,3 15,7 8 4 N 1014,6 - -
19.10.2018 22:00:00 16,7 15,6 4 2 NNE 1014,3 - 0,0
19.10.2018 21:00:00 16,9 15,4 2 1 NNE 1014,0 - 0,2
19.10.2018 20:00:00 17,3 15,6 5 3 E 1013,3 10 -
19.10.2018 19:00:00 19,3 14,5 13 7 E 1012,5 - 0,6
19.10.2018 18:00:00 21,2 12,9 9 5 E 1011,5 - 0,0
19.10.2018 17:00:00 22,5 13,6 13 7 E 1011,3 20 -
19.10.2018 16:00:00 22,2 14,3 15 8 E 1011,4 - 0,0
19.10.2018 15:00:00 20,6 14,5 9 5 ESE 1012,1 - 0,0
19.10.2018 14:00:00 19,4 14,2 11 6 E 1012,8 75 -
19.10.2018 13:00:00 17,8 14,5 8 4 E 1013,1 - 0,0
19.10.2018 12:00:00 16,4 14,2 8 4 ENE 1013,0 - 0,0
19.10.2018 11:00:00 15,2 14,2 8 4 E 1012,9 25 -
19.10.2018 10:00:00 14,8 14,0 5 3 E 1012,3 - 0,0
19.10.2018 09:00:00 14,2 13,6 4 2 SSE 1011,1 - 0,0
19.10.2018 08:00:00 14,5 14,0 4 2 S 1010,7 10 -
19.10.2018 07:00:00 14,5 14,0 2 1 SW 1010,6 - 0,8
19.10.2018 06:00:00 14,5 13,9 4 2 WNW 1010,4 - 0,8
19.10.2018 05:00:00 14,5 13,9 5 3 NW 1010,3 - -
19.10.2018 04:00:00 14,8 14,2 2 1 ENE 1011,0 - 2,0
19.10.2018 03:00:00 14,8 14,0 2 1 SSW 1010,4 - 0,0
19.10.2018 02:00:00 14,7 13,7 4 2 NW 1011,1 - -
19.10.2018 01:00:00 14,7 13,7 2 1 ESE 1011,5 - 0,0
19.10.2018 00:00:00 14,8 13,8 4 2 E 1011,5 - 0,0
18.10.2018 23:00:00 14,8 13,3 2 1 SSE 1011,1 - -
18.10.2018 22:00:00 14,9 13,3 4 2 SSE 1010,5 - 0,6
18.10.2018 21:00:00 15,3 13,5 9 5 ENE 1010,4 - 0,2
18.10.2018 20:00:00 15,7 12,8 8 4 S 1008,8 25 -
18.10.2018 19:00:00 20,9 15,0 13 7 SE 1007,5 - 0,0
18.10.2018 18:00:00 21,1 13,0 13 7 NNE 1006,9 - 0,0
18.10.2018 17:00:00 21,4 15,5 4 2 S 1007,3 25 -
18.10.2018 16:00:00 19,3 14,3 4 2 NNE 1007,8 - 0,0
18.10.2018 15:00:00 18,9 14,4 8 4 ESE 1008,3 - 0,0
18.10.2018 14:00:00 17,2 14,8 9 5 ESE 1008,6 25 -
18.10.2018 13:00:00 16,1 14,8 15 8 NE 1008,7 - 1,0
18.10.2018 12:00:00 14,8 13,8 16 9 NE 1009,2 - 0,8
18.10.2018 11:00:00 14,0 13,2 16 9 NNE 1009,2 15 -
18.10.2018 10:00:00 13,5 13,0 18 10 NE 1009,3 - 0,4
18.10.2018 09:00:00 13,0 12,5 18 10 N 1008,4 - 1,0
18.10.2018 08:00:00 13,2 12,6 5 3 NNW 1009,5 10 -
18.10.2018 07:00:00 13,3 12,7 4 2 W 1009,3 - 0,4
18.10.2018 06:00:00 13,6 12,8 5 3 WSW 1010,1 - 2,0
18.10.2018 05:00:00 13,6 12,8 4 2 SSW 1010,1 - -
18.10.2018 04:00:00 13,9 12,8 9 5 W 1011,1 - 1,0
18.10.2018 03:00:00 13,9 12,6 13 7 WNW 1011,4 - 0,4
18.10.2018 02:00:00 14,9 12,9 11 6 W 1012,2 - -
18.10.2018 01:00:00 15,5 12,1 15 8 WNW 1012,6 - 0,0
18.10.2018 00:00:00 16,4 12,7 9 5 W 1012,6 - 0,0
17.10.2018 23:00:00 17,3 12,8 15 8 W 1012,9 - -
17.10.2018 22:00:00 18,7 12,9 8 4 W 1012,6 - 0,0
17.10.2018 21:00:00 19,7 12,5 4 2 W 1013,0 - 0,0
17.10.2018 20:00:00 20,4 11,9 15 8 WNW 1013,0 40 -
17.10.2018 19:00:00 21,8 12,1 16 9 WNW 1012,7 - 0,0
17.10.2018 18:00:00 23,8 11,5 9 5 W 1012,6 - 0,0
17.10.2018 17:00:00 25,0 11,5 8 4 SW 1013,2 75 -
17.10.2018 16:00:00 24,6 11,2 8 4 W 1014,1 - 0,0
17.10.2018 15:00:00 23,3 11,4 8 4 WNW 1015,1 - 0,0
17.10.2018 14:00:00 22,2 12,4 8 4 WNW 1016,4 75 -
17.10.2018 13:00:00 20,5 12,7 4 2 WSW 1017,3 - 0,0
17.10.2018 12:00:00 18,0 12,9 5 3 W 1018,0 - 0,0
17.10.2018 11:00:00 15,4 12,3 4 2 NW 1018,4 50 -
17.10.2018 10:00:00 13,2 11,8 4 2 W 1018,5 - 0,0
17.10.2018 09:00:00 11,9 10,8 4 2 SW 1018,3 - 0,0
17.10.2018 08:00:00 12,1 10,8 4 2 W 1018,3 20 -
17.10.2018 07:00:00 - - - - - - - -
17.10.2018 06:00:00 - - - - - - - -
17.10.2018 05:00:00 13,1 11,2 2 1 WSW 1017,8 - -
17.10.2018 04:00:00 13,3 11,5 4 2 SW 1018,2 - 0,0
17.10.2018 03:00:00 13,9 11,8 4 2 WSW 1018,2 - 0,0
17.10.2018 02:00:00 14,5 12,0 4 2 WSW 1018,1 - -
17.10.2018 01:00:00 15,3 11,9 5 3 W 1018,0 - 0,0
17.10.2018 00:00:00 15,9 11,9 5 3 W 1018,1 - 0,0
16.10.2018 23:00:00 16,4 12,0 5 3 WSW 1017,8 - -
16.10.2018 22:00:00 17,0 12,3 4 2 W 1017,3 - 0,0
16.10.2018 21:00:00 17,8 13,1 4 2 W 1017,0 - 0,0
16.10.2018 20:00:00 19,1 12,8 5 3 NW 1016,4 75 -
16.10.2018 19:00:00 20,6 12,0 11 6 NNW 1016,0 - 0,0
16.10.2018 18:00:00 21,3 11,6 5 3 NE 1015,6 - 0,0
16.10.2018 17:00:00 21,0 11,9 9 5 N 1015,6 75 -
16.10.2018 16:00:00 20,2 12,4 8 4 N 1015,7 - 0,0
16.10.2018 15:00:00 19,5 11,8 9 5 N 1015,8 - 0,0
16.10.2018 14:00:00 19,7 12,7 11 6 NNE 1015,7 30 -
16.10.2018 13:00:00 18,8 13,0 8 4 NE 1015,9 - 0,0
16.10.2018 12:00:00 17,0 12,9 13 7 NE 1015,8 - 0,0
16.10.2018 11:00:00 14,9 12,8 15 8 NNE 1015,7 30 -
16.10.2018 10:00:00 14,5 12,7 8 4 NNE 1015,0 - 0,0
16.10.2018 09:00:00 13,4 12,3 5 3 N 1014,3 - 0,0
16.10.2018 08:00:00 14,8 13,5 8 4 N 1013,4 12 -
16.10.2018 07:00:00 15,0 13,9 5 3 N 1013,0 - 0,0
16.10.2018 06:00:00 14,9 13,9 4 2 N 1012,6 - 0,0
16.10.2018 05:00:00 15,0 14,0 4 2 NE 1012,0 - -
16.10.2018 04:00:00 15,3 14,0 9 5 E 1011,8 - 0,0
16.10.2018 03:00:00 15,9 15,3 5 3 NE 1011,4 - 0,0
16.10.2018 02:00:00 15,8 15,2 2 1 N 1011,3 - -
16.10.2018 01:00:00 15,9 15,1 8 4 WNW 1011,5 - 0,0
16.10.2018 00:00:00 16,1 14,8 8 4 W 1011,2 - 0,0
15.10.2018 23:00:00 16,2 15,2 5 3 W 1010,6 - -
15.10.2018 22:00:00 16,7 14,7 8 4 W 1009,9 - 0,0
15.10.2018 21:00:00 16,7 14,7 2 1 SW 1009,5 - 0,0
15.10.2018 20:00:00 17,2 14,7 4 2 SSW 1008,9 15 -
15.10.2018 19:00:00 18,1 14,4 4 2 SW 1008,5 - 0,0
15.10.2018 18:00:00 18,2 15,6 8 4 NW 1008,4 - 0,8
15.10.2018 17:00:00 17,9 15,0 8 4 SSW 1008,1 10 -
15.10.2018 16:00:00 17,0 14,8 8 4 SSW 1008,1 - 0,0
15.10.2018 15:00:00 16,1 14,8 11 6 SSW 1008,3 - 2,0
15.10.2018 14:00:00 15,7 13,7 16 9 SSW 1008,6 4,5 -
15.10.2018 13:00:00 15,2 13,4 21 11 S 1009,0 - 1,0
15.10.2018 12:00:00 15,0 12,5 21 11 S 1010,0 - 0,6
15.10.2018 11:00:00 15,4 10,8 16 9 SSW 1011,0 20 -
15.10.2018 10:00:00 14,5 9,9 13 7 S 1011,6 - 0,0
15.10.2018 09:00:00 13,6 9,2 11 6 S 1011,9 - 0,0
15.10.2018 08:00:00 13,1 9,0 8 4 SSW 1012,6 15 -
15.10.2018 07:00:00 12,7 8,8 8 4 SSW 1013,1 - 0,0
15.10.2018 06:00:00 12,2 8,8 5 3 SW 1013,6 - 0,0
15.10.2018 05:00:00 11,1 8,5 5 3 WSW 1014,1 - -
15.10.2018 04:00:00 10,7 7,8 5 3 WSW 1014,7 - 0,0
15.10.2018 03:00:00 11,5 7,8 8 4 WSW 1015,2 - 0,0
15.10.2018 02:00:00 12,0 7,9 8 4 W 1015,6 - -
15.10.2018 01:00:00 12,6 8,1 9 5 W 1015,7 - 0,0
15.10.2018 00:00:00 12,4 8,9 11 6 WNW 1015,8 - 0,0
14.10.2018 23:00:00 13,2 8,7 9 5 W 1015,5 - -
14.10.2018 22:00:00 14,7 8,4 11 6 W 1014,9 - 0,0
14.10.2018 21:00:00 15,3 8,3 11 6 W 1014,2 - 0,0
14.10.2018 20:00:00 15,4 9,3 15 8 W 1014,1 30 -

tt = Température de l'air
td = dewpoint
ff = Vitesse du vent
dd = Direction du vent
ppp = reduced air pressure
vv = visibility
rr = Quantités de précipitations

stations d'obs. à proximité